Terminal Aerodrome Forecast
Issued by NWS Riverton, WY

Home | Current Version | Previous Version | Text Only | Print | Product List | Glossary On
Versions: 1 2 3 4 5 6 7 8 9 10 11 12 13 14 15 16 17 18 19 20 21
000
FTUS45 KRIW 301100
TAFRIW
TAF
KRIW 301127Z 3012/0112 29014KT P6SM SCT100
     FM301500 28007KT P6SM SCT100
     FM301900 20008KT P6SM VCSH SCT050 BKN100
     FM010200 29010G15KT P6SM SCT090
     FM011000 02007KT P6SM BKN020=

USA.gov is the U.S. government's official web portal to all federal, state and local government web resources and services.